Regional Weather Roundup
Issued by NWS

Home | Current Version | Previous Version | Text Only | Print | Product List | Glossary On
Versions: 1 2 3 4 5 6 7 8 9 10 11 12 13 14 15 16 17 18 19 20 21 22 23 24 25 26 27 28 29 30 31 32 33 34 35 36 37 38 39 40 41 42 43 44 45 46 47 48 49 50
000
ASUS43 KTOP 040108
RWRKS

WEATHER ROUNDUP FOR KANSAS
NATIONAL WEATHER SERVICE GOODLAND KS
800 PM CDT MON AUG 03 2015

NOTE:  "FAIR" INDICATES FEW OR NO CLOUDS BELOW 12,000 FEET WITH NO
SIGNIFICANT WEATHER AND/OR OBSTRUCTIONS TO VISIBILITY.

KSZ001>006-013>018-027>032-041>047-040200-
NORTHWEST KANSAS

CITY           SKY/WX    TMP DP  RH WIND       PRES   REMARKS
GOODLAND       CLOUDY    73  57  57 W13       30.00R
HAYS           MOCLDY    88  64  45 S10       29.90S
HILL CITY      MOCLDY    88  66  48 SE6       29.91R
RUSSELL        PTCLDY    88  65  46 S9        29.89R
$$

KSZ061>065-074>080-084>089-040200-
SOUTHWEST KANSAS

CITY           SKY/WX    TMP DP  RH WIND       PRES   REMARKS
DODGE CITY     PTCLDY    82  60  47 S13       29.94R
ELKHART          N/A     76  68  77 E3          N/A
GARDEN CITY    CLOUDY    83  64  52 SE12      29.95R
GREAT BEND     PTCLDY    88  66  48 S10       29.90R
LIBERAL        CLOUDY    84  63  48 SE8       29.94R
PRATT          PTCLDY    86  63  45 SE8       29.94R
$$

KSZ066>073-081>083-090>101-040200-
SOUTHEAST KANSAS

CITY           SKY/WX    TMP DP  RH WIND       PRES   REMARKS
CHANUTE        MOCLDY    85  66  53 S7        29.91S
COFFEYVILLE    PTCLDY    86  67  52 S8        29.91R
HUTCHINSON     PTCLDY    87  68  52 S9        29.91R
MEDICINE LODGE   N/A     87  66  49 S5        29.89S
NEWTON         PTCLDY    88  66  48 S9        29.94S
PARSONS        PTCLDY    84  71  65 CALM      29.92S
WICHITA INTL   PTCLDY    86  70  58 SE10      29.90R
WICHITA JABRA  CLEAR     86  71  60 SE8       29.91R
WICHITA MCCONL CLEAR     86  71  60 SE10      29.91S
$$

KSZ007>012-019>026-033>040-048>060-102>105-040200-
NORTHEAST KANSAS

CITY           SKY/WX    TMP DP  RH WIND       PRES   REMARKS
CONCORDIA      MOCLDY    86  72  62 E6        29.88S
EMPORIA        CLOUDY    86  70  58 S5        29.89S
LAWRENCE       PTCLDY    83  76  79 NE5       29.88S
MANHATTAN      PTCLDY    89  72  56 S3        29.87S HX  96
MARYSVILLE     MOCLDY    79  72  78 E6        29.92R
OLATHE IND     PTCLDY    86  72  62 S5        29.90S
OLATHE EXE     PTCLDY    85  74  69 SE7       29.89S
SALINA         MOCLDY    89  70  53 S8        29.88R
TOPEKA BILLARD PTCLDY    89  73  59 SE3       29.88S HX  97
TOPEKA FORBES  PTCLDY    89  72  56 S3        29.89S HX  96
$$


USA.gov is the U.S. government's official web portal to all federal, state and local government web resources and services.